Location: Pcim
(49.7500°N, 19.9670°E)
Time: 21:38:16
(UTC+02:00)

MOZHAYETS 4 - Pass Details

Date: 26 April 2024
Orbit: 652 x 670 km, 98.3° (Epoch: 20 May)

Event Time Altitude Azimuth Distance (km) Brightness Sun altitude
Rises 03:27:28 0° 154° (SSE) 3,007 10.9 -16.5°
Reaches altitude 10° 03:29:42 10° 151° (SSE) 2,099 10.1 -16.3°
Maximum altitude 03:34:14 62° 71° (ENE) 757 8.2 -15.7°
Drops below altitude 10° 03:38:47 10° 351° (N) 2,112 10.8 -15.2°
Sets 03:41:02 0° 349° (NNW) 3,029 11.6 -15.0°
